Lær å fly hos oss!

Oslo Flyveklubb har i mange år utdannet flygere til privatflygersetifikat PPL(A). Skolen har godkjenning for å drive utdanning til teoriundervisning til PPL(A), privatflygersertifikat PPL (A) og mørkeflyging.

Gi bort en flytur i gave

På en introduksjonstur vil kandidaten være med på forberedelser til, og gjennomføring av en flytur på en times varighet med en av våre instruktører.

Hvor vi holder til?

Flyplassen ligger i Lillestrøm 10 minutter med tog fra Oslo. Følg storgata fra Lillestrøms sentrum så vill man se plassen på venstre side.
Metar/TAF Gardermoen:

ENGM 171020Z VRB02KT 9999 BKN025 01/M01 Q1018 NOSIG

TAF ENGM 170500Z 1706/1806 02005KT 8000 SCT004 BKN040 PROB40 1706/1710 0500 FZFG VV001 BECMG 1715/1718 17012KT 4000 -DZRA BR OVC008 TEMPO 1718/1806 1200 DZRA BR OVC002